Location: Morisset
(33.1080°S, 151.4871°E)
Time: 08:38:12
(UTC+00:00)

SL-19 R/B - Pass Details

Date: 29 October 2020
Orbit: 874 x 1208 km, 100.5° (Epoch: 27 November)

Event Time Altitude Azimuth Distance (km) Brightness Sun altitude
Rises 17:32:45 0° 166° (SSE) 3,501 8.1 -17.0°
Reaches altitude 10° 17:35:08 10° 166° (SSE) 2,553 7.3 -16.5°
Maximum altitude 17:40:46 88° 253° (WSW) 898 4.3 -15.5°
Drops below altitude 10° 17:46:30 10° 343° (NNW) 2,600 6.3 -14.4°
Enters shadow 17:46:54 - 343° (NNW) 2,754 6.5 -14.4°
